SCP
-0 -0 -0 -0 -0 -0 -0 0 0 0 0 -0 -0 0 -0 -0 -0 0 0 0 0 -0
-0 -0 -0 -0 -0 -0 -0 -0 -0 -0 -0 -0 -0 0 -0 -0 -0 0 0 -0 -0 0
-0 -0 0 0 -0 -0 -0 -0 -0 -0 0 -0 -0 -0 -0 -0 -0 -0 -0 -0 -0 -0
-0 -0 0 0 0 -0 0 -0 -0 -0 -0 -0 -0 -0 0 -0 -0 -0 0 0 -0 -0
0 0 0 0 0 0 0 0 0 0 -0 -0 -0 0 0 -0 0 -0 -0 -0 -0 -0
-0 0 0 -0 0 0 0 0 0 0 0 0 0 0 0 0 0 0 0 0 -0 -0
0 0 0 0 0 0 0 0 1 1 1 0 0 0 0 0 0 0 0 0 -0 -0
1 1 0 1 1 0 1 1 1 1 1 1 0 0 0 0 0 0 0 0 0 0
1 1 0 1 2 1 1 2 1 2 1 1 1 0 -0 0 0 0 0 0 0 0
1 0 0 -0 0 1 1 2 2 1 1 1 1 0 0 -0 0 0 0 0 0 1
0 0 0 0 0 0 0 0 0 0 0 -0 -0 0 0 0 1 1 1 1 1 1
0 0 0 0 0 0 0 0 0 0 0 0 -0 0 0 1 1 1 1 2 2 2
0 0 0 0 0 0 0 0 1 1 0 0 0 1 1 1 2 2 2 2 3 2
0 0 0 0 1 1 1 1 1 1 1 1 1 2 2 1 2 3 3 3 2 2
Wind_Speed_500mb
60 48 40 40 26 21 20 8 23 33 32 38 38 52 39 43 41 38 43 36 32 27
56 60 56 45 38 33 28 29 24 42 32 38 40 50 45 36 35 38 33 26 37 42
49 51 51 56 48 37 39 33 32 32 31 32 32 44 46 43 37 41 35 31 32 34
53 51 50 49 48 45 40 39 28 30 26 36 34 43 49 41 38 44 38 36 34 33
45 47 47 45 51 47 45 47 41 40 39 37 30 36 46 47 46 45 45 46 42 40
46 40 37 39 30 54 49 51 51 51 47 42 39 38 44 47 50 56 54 50 53 52
40 38 30 27 34 31 46 47 50 54 58 55 49 49 48 48 50 55 61 59 56 54
55 50 40 27 31 34 38 38 43 49 52 53 55 54 54 54 54 52 55 60 63 59
54 41 37 39 56 42 37 46 44 46 54 58 59 59 58 58 62 63 61 61 61 66
48 34 70 54 39 53 45 51 54 44 53 65 69 66 62 60 61 63 64 64 63 65
44 48 62 66 50 50 52 56 50 54 46 70 67 68 69 68 65 65 70 74 74 70
46 49 42 39 41 40 58 64 63 48 58 38 66 69 67 66 66 67 79 83 87 87
40 36 37 36 27 24 21 17 20 38 52 50 61 55 58 57 65 75 77 78 90 89
29 32 35 33 29 28 23 19 19 26 34 38 42 43 48 53 60 66 67 74 77 79
Wind_Direction_500mb
213 211 222 231 221 202 227 308 233 223 206 202 204 210 213 223 223 222 219 220 212 218
218 224 226 231 235 227 215 214 248 224 211 208 215 216 222 220 220 217 218 225 221 223
226 226 229 234 238 227 231 227 231 211 221 223 223 221 224 223 224 218 220 233 226 221
232 236 234 233 231 221 221 229 230 226 244 227 233 226 223 219 217 220 227 230 235 234
235 241 243 237 232 225 224 227 236 229 242 239 232 230 229 224 221 222 226 234 239 243
228 229 241 242 231 224 223 226 230 242 243 246 243 237 234 234 229 229 232 234 237 248
217 219 230 249 242 232 230 229 231 237 245 248 247 242 239 235 234 234 238 242 247 244
199 212 217 229 242 237 236 244 242 241 246 249 247 247 243 242 244 243 240 242 247 249
185 181 201 202 226 225 232 239 240 249 253 256 256 255 251 249 248 248 247 246 246 247
182 240 240 235 229 232 217 219 221 235 255 254 256 258 258 256 254 253 253 253 251 249
211 229 234 231 247 233 240 238 232 246 272 288 258 256 258 256 251 250 255 256 258 258
239 243 234 229 238 245 246 253 252 253 223 237 266 263 261 262 259 252 251 253 258 259
229 237 227 236 235 218 221 228 230 244 256 267 266 265 265 263 261 257 254 253 253 255
210 198 207 211 210 215 225 247 265 264 264 266 267 268 267 266 262 260 261 261 261 257
Wind_Speed_850mb
60 48 40 40 26 21 20 8 23 33 32 38 38 52 39 43 41 38 43 36 32 27
56 60 56 45 38 33 28 29 24 42 32 38 40 50 45 36 35 38 33 26 37 42
49 51 51 56 48 37 39 33 32 32 31 32 32 44 46 43 37 41 35 31 32 34
53 51 50 49 48 45 40 39 28 30 26 36 34 43 49 41 38 44 38 36 34 33
45 47 47 45 51 47 45 47 41 40 39 37 30 36 46 47 46 45 45 46 42 40
46 40 37 39 30 54 49 51 51 51 47 42 39 38 44 47 50 56 54 50 53 52
40 38 30 27 34 31 46 47 50 54 58 55 49 49 48 48 50 55 61 59 56 54
55 50 40 27 31 34 38 38 43 49 52 53 55 54 54 54 54 52 55 60 63 59
54 41 37 39 56 42 37 46 44 46 54 58 59 59 58 58 62 63 61 61 61 66
48 34 70 54 39 53 45 51 54 44 53 65 69 66 62 60 61 63 64 64 63 65
44 48 62 66 50 50 52 56 50 54 46 70 67 68 69 68 65 65 70 74 74 70
46 49 42 39 41 40 58 64 63 48 58 38 66 69 67 66 66 67 79 83 87 87
40 36 37 36 27 24 21 17 20 38 52 50 61 55 58 57 65 75 77 78 90 89
29 32 35 33 29 28 23 19 19 26 34 38 42 43 48 53 60 66 67 74 77 79
Wind_Direction_850mb
213 211 222 231 221 202 227 308 233 223 206 202 204 210 213 223 223 222 219 220 212 218
218 224 226 231 235 227 215 214 248 224 211 208 215 216 222 220 220 217 218 225 221 223
226 226 229 234 238 227 231 227 231 211 221 223 223 221 224 223 224 218 220 233 226 221
232 236 234 233 231 221 221 229 230 226 244 227 233 226 223 219 217 220 227 230 235 234
235 241 243 237 232 225 224 227 236 229 242 239 232 230 229 224 221 222 226 234 239 243
228 229 241 242 231 224 223 226 230 242 243 246 243 237 234 234 229 229 232 234 237 248
217 219 230 249 242 232 230 229 231 237 245 248 247 242 239 235 234 234 238 242 247 244
199 212 217 229 242 237 236 244 242 241 246 249 247 247 243 242 244 243 240 242 247 249
185 181 201 202 226 225 232 239 240 249 253 256 256 255 251 249 248 248 247 246 246 247
182 240 240 235 229 232 217 219 221 235 255 254 256 258 258 256 254 253 253 253 251 249
211 229 234 231 247 233 240 238 232 246 272 288 258 256 258 256 251 250 255 256 258 258
239 243 234 229 238 245 246 253 252 253 223 237 266 263 261 262 259 252 251 253 258 259
229 237 227 236 235 218 221 228 230 244 256 267 266 265 265 263 261 257 254 253 253 255
210 198 207 211 210 215 225 247 265 264 264 266 267 268 267 266 262 260 261 261 261 257